VE2EEG Weather Reports


time (UTC)temp
F
wind
direction
speed
knots
gust
knots
rain 1hr
in
rain 24hr
in
rain mn
in
humidity
%
barometer
mb
20260502184525 51 236 5.2 12.2 0.00 0.00 0.00 44 1011.6
20260502184007 51 255 6.1 12.2 0.00 0.00 0.00 44 1011.5
20260502183507 51 296 6.1 11.3 0.00 0.00 0.00 44 1011.6
20260502183022 51 269 5.2 11.3 0.00 0.00 0.00 45 1011.7
20260502182508 51 281 5.2 11.3 0.00 0.00 0.00 46 1011.6
20260502182011 50 206 7.0 12.2 0.00 0.00 0.00 44 1011.7
20260502181529 51 234 5.2 12.2 0.00 0.00 0.00 43 1011.7
20260502181007 50 283 6.1 10.4 0.00 0.00 0.00 47 1011.6
20260502180511 50 216 6.1 12.2 0.00 0.00 0.00 47 1011.7
20260502170503 48 269 7.8 13.0 0.00 0.00 0.00 50 1011.7
20260502164003 47 273 5.2 14.8 0.00 0.00 0.00 52 1011.9
20260502163503 47 281 8.7 14.8 0.00 0.00 0.00 51 1011.8
20260502163010 47 258 7.8 14.8 0.00 0.00 0.00 51 1011.9
20260502162504 47 237 7.0 13.9 0.00 0.00 0.00 52 1011.8
20260502162004 47 281 7.8 13.9 0.00 0.00 0.00 52 1011.9
20260502161509 47 266 7.0 13.9 0.00 0.00 0.00 52 1011.9
20260502161001 46 277 7.8 13.0 0.00 0.00 0.00 52 1011.8
20260502160503 47 246 6.1 12.2 0.00 0.00 0.00 52 1011.9
20260502152004 46 233 7.8 13.0 0.00 0.01 0.00 55 1012.2
20260502151514 45 246 7.8 14.8 0.00 0.01 0.00 55 1012.1
20260502151003 45 235 8.7 15.6 0.00 0.01 0.00 56 1012.3
20260502150506 45 236 8.7 18.2 0.00 0.02 0.00 56 1012.1
20260502130504 43 242 4.3 13.9 0.00 0.09 0.00 59 1012.0
20260502123504 42 246 8.7 13.9 0.00 0.10 0.00 60 1012.1
20260502123010 42 258 7.0 13.0 0.00 0.10 0.00 61 1012.1
20260502122504 41 219 6.1 12.2 0.00 0.10 0.00 61 1012.1
20260502122010 41 246 5.2 12.2 0.00 0.10 0.00 62 1012.0
20260502121514 41 247 7.0 12.2 0.00 0.11 0.00 61 1012.0
20260502121006 41 215 5.2 12.2 0.00 0.11 0.00 62 1012.1
20260502120504 41 237 6.1 12.2 0.00 0.11 0.00 63 1012.0
20260502115503 40 212 7.0 10.4 0.00 0.11 0.00 65 1012.0
20260502115008 40 265 5.2 11.3 0.00 0.11 0.00 66 1011.9
20260502114514 40 233 6.1 11.3 0.00 0.11 0.00 67 1011.9
20260502114008 40 255 5.2 10.4 0.00 0.11 0.00 68 1011.8
20260502113509 39 244 6.1 10.4 0.00 0.11 0.00 69 1011.8
20260502113016 39 242 6.1 10.4 0.00 0.11 0.00 70 1011.8
20260502112503 39 203 5.2 12.2 0.00 0.11 0.00 71 1011.8
20260502112005 39 252 5.2 12.2 0.00 0.11 0.00 72 1011.9
20260502111512 39 254 4.3 9.6 0.00 0.11 0.00 73 1011.8
20260502111003 38 207 5.2 9.6 0.00 0.11 0.00 74 1011.8
20260502110504 38 199 4.3 10.4 0.00 0.13 0.00 76 1011.8
20260502110016 38 228 6.1 10.4 0.00 0.13 0.00 77 1011.7
20260502105504 38 223 5.2 11.3 0.00 0.14 0.00 78 1011.6
20260502105006 38 234 3.5 11.3 0.00 0.14 0.00 78 1011.7
20260502104517 38 197 3.5 11.3 0.00 0.14 0.00 79 1011.6
20260502104007 37 239 5.2 11.3 0.00 0.15 0.00 78 1011.5
20260502103507 37 231 6.1 13.0 0.00 0.17 0.00 79 1011.5
20260502103020 37 214 7.0 13.0 0.00 0.18 0.00 78 1011.3
20260502102506 38 250 7.0 13.0 0.00 0.18 0.00 78 1011.3
20260502102007 38 253 6.1 12.2 0.00 0.18 0.00 78 1011.2
20260502101515 37 232 7.8 13.0 0.00 0.18 0.00 78 1011.2
20260502101003 37 228 6.1 13.0 0.00 0.18 0.00 79 1011.2
20260502100504 37 236 6.1 14.8 0.00 0.18 0.00 79 1011.2
20260502091520 36 222 7.8 13.0 0.00 0.20 0.00 80 1010.6
20260502091006 36 196 7.0 13.0 0.00 0.20 0.00 81 1010.5
20260502090510 36 223 5.2 12.2 0.00 0.20 0.00 81 1010.5
20260502071524 37 241 5.2 10.4 0.00 0.21 0.00 79 1010.0
20260502071010 37 240 5.2 10.4 0.00 0.21 0.00 79 1010.0
20260502070508 37 232 6.1 10.4 0.00 0.21 0.00 80 1010.0
20260502070024 38 238 4.3 8.7 0.00 0.22 0.00 80 1010.0
20260502065504 38 229 4.3 8.7 0.00 0.22 0.00 80 1010.0
20260502065003 38 227 4.3 7.8 0.00 0.22 0.00 79 1009.9
20260502064531 38 252 4.3 9.6 0.00 0.22 0.00 79 1009.9
20260502064004 38 220 4.3 9.6 0.00 0.22 0.00 79 1009.9
20260502063504 39 252 5.2 8.7 0.00 0.22 0.00 79 1009.8
20260502063023 39 229 4.3 8.7 0.00 0.22 0.00 78 1009.7
20260502062509 39 246 4.3 8.7 0.00 0.22 0.00 78 1009.7
20260502062007 39 240 3.5 8.7 0.00 0.23 0.00 78 1009.7
20260502061522 40 248 4.3 8.7 0.00 0.23 0.00 77 1009.6
20260502061007 40 229 3.5 9.6 0.00 0.23 0.00 77 1009.6
20260502060509 40 214 3.5 10.4 0.00 0.24 0.00 77 1009.6
20260502060028 40 242 5.2 14.8 0.00 0.25 0.00 77 1009.6
20260502055508 40 236 6.1 13.0 0.00 0.25 0.00 77 1009.6
20260502055007 40 239 6.1 13.0 0.00 0.25 0.00 77 1009.6
20260502054510 40 227 7.0 12.2 0.00 0.26 0.00 77 1009.6
20260502054004 40 256 6.1 12.2 0.00 0.27 0.00 77 1009.6
20260502053502 40 228 4.3 13.9 0.00 0.29 0.00 77 1009.6
20260502053014 40 219 6.1 13.0 0.00 0.29 0.00 77 1009.6
20260502052508 40 248 6.1 12.2 0.00 0.31 0.00 77 1009.7
20260502052007 40 238 5.2 12.2 0.00 0.33 0.00 78 1009.6
20260502051527 40 230 7.0 12.2 0.00 0.33 0.00 78 1009.6
20260502051006 40 254 6.1 12.2 0.00 0.35 0.00 79 1009.5
20260502050507 40 234 6.1 12.2 0.00 0.36 0.00 79 1009.5
20260502050027 40 229 6.1 11.3 0.00 0.37 0.00 79 1009.5
20260502045507 40 240 7.0 11.3 0.00 0.37 0.00 79 1009.5
20260502045010 40 245 6.1 10.4 0.00 0.39 0.00 80 1009.4
20260502044534 40 236 5.2 12.2 0.00 0.40 0.00 80 1009.5
20260502044011 40 229 6.1 12.2 0.00 0.42 0.00 80 1009.4
20260502043510 40 242 4.3 10.4 0.00 0.44 0.00 81 1009.5
20260502043012 40 250 4.3 11.3 0.00 0.45 0.00 81 1009.5
20260502042503 41 245 5.2 11.3 0.00 0.47 0.00 81 1009.4
20260502042006 41 223 4.3 8.7 0.00 0.48 0.00 81 1009.4
20260502041515 41 221 2.6 8.7 0.00 0.48 0.00 81 1009.4
20260502041005 41 252 4.3 8.7 0.00 0.50 0.00 82 1009.5
20260502040507 41 268 5.2 8.7 0.00 0.51 0.00 82 1009.4
20260502040035 41 246 4.3 7.0 0.00 0.51 0.00 82 1009.4
20260502035507 41 227 3.5 6.1 0.00 0.52 0.51 83 1009.2
20260502035010 41 230 2.6 8.7 0.00 0.53 0.51 83 1009.2
20260502034528 41 226 3.5 8.7 0.00 0.53 0.51 84 1009.1
20260502034009 41 232 1.7 5.2 0.00 0.53 0.51 84 1009.1
20260502033510 41 232 1.7 3.5 0.00 0.53 0.51 84 1009.0
20260502033027 41 221 1.7 2.6 0.00 0.54 0.51 84 1009.0
20260502032510 41 204 1.7 5.2 0.00 0.54 0.51 84 1008.9
20260502032013 41 232 2.6 5.2 0.00 0.54 0.51 84 1008.9
20260502031517 41 200 1.7 3.5 0.00 0.55 0.51 85 1009.0
20260502031006 41 211 1.7 3.5 0.00 0.55 0.51 85 1009.0
20260502030506 41 217 1.7 3.5 0.00 0.55 0.51 84 1008.9
20260502030021 41 219 2.6 3.5 0.00 0.56 0.51 85 1008.8
20260502025506 41 198 1.7 5.2 0.00 0.57 0.51 85 1008.9
20260502025008 41 230 1.7 5.2 0.00 0.58 0.51 85 1008.9
20260502024526 41 215 2.6 5.2 0.00 0.59 0.51 85 1009.0
20260502024009 41 223 1.7 5.2 0.00 0.60 0.51 85 1009.0
20260502023509 41 239 2.6 5.2 0.00 0.61 0.51 85 1009.0
20260502023027 41 212 1.7 6.1 0.00 0.62 0.51 85 1009.0
20260502022512 42 239 2.6 6.1 0.00 0.62 0.51 84 1009.0
20260502022012 42 220 2.6 6.1 0.00 0.63 0.51 83 1009.0
20260502021510 42 226 1.7 6.1 0.00 0.64 0.51 83 1009.0
20260502021004 42 239 2.6 6.1 0.00 0.65 0.51 83 1009.1
20260502020506 42 242 2.6 4.3 0.00 0.66 0.51 84 1009.0
20260502020018 42 236 0.9 2.6 0.00 0.66 0.51 84 1009.1
20260502015511 42 200 0.9 3.5 0.00 0.67 0.51 84 1009.1
20260502015007 42 230 0.9 3.5 0.00 0.68 0.51 85 1009.0
20260502014512 42 225 0.9 3.5 0.00 0.69 0.51 85 1009.0
20260502014002 42 259 0.9 2.6 0.00 0.70 0.51 86 1009.1
20260502013503 42 240 0.9 5.2 0.00 0.70 0.51 86 1009.1
20260502013007 42 240 0.9 5.2 0.00 0.70 0.51 87 1009.1
20260502012502 41 235 2.6 5.2 0.00 0.70 0.51 87 1009.1
20260502012002 41 242 2.6 5.2 0.00 0.70 0.51 88 1009.2
20260502011508 41 246 2.6 6.1 0.00 0.70 0.51 88 1009.2
20260502011004 41 218 3.5 7.0 0.00 0.70 0.51 88 1009.3
20260502010503 41 239 3.5 7.0 0.00 0.70 0.51 88 1009.2
20260502010013 41 204 2.6 6.1 0.00 0.70 0.51 88 1009.1
20260502005507 41 239 3.5 6.1 0.00 0.70 0.51 89 1009.2
20260502005008 41 218 1.7 7.8 0.00 0.70 0.51 88 1009.2
20260502004523 41 248 2.6 7.8 0.00 0.70 0.51 88 1009.2
20260502004008 41 177 2.6 5.2 0.00 0.70 0.51 88 1009.1
20260502003503 41 225 2.6 5.2 0.00 0.70 0.51 88 1009.2
20260502003002 40 233 2.6 7.0 0.00 0.70 0.51 88 1009.2
20260502002502 40 194 2.6 7.0 0.00 0.70 0.51 88 1009.2
20260502002003 40 215 1.7 5.2 0.00 0.70 0.51 88 1009.0
20260502001506 40 203 2.6 6.1 0.00 0.70 0.51 87 1008.9
20260502001003 40 215 3.5 7.8 0.00 0.70 0.51 87 1008.9
20260502000503 41 232 1.7 7.8 0.00 0.70 0.51 87 1008.8
20260502000011 41 201 2.6 5.2 0.00 0.70 0.51 86 1008.9
20260501235503 41 196 3.5 6.1 0.00 0.70 0.51 85 1008.8
20260501235003 41 219 3.5 6.1 0.00 0.70 0.51 85 1008.8
20260501234518 41 181 2.6 5.2 0.00 0.71 0.51 85 1008.9
20260501234007 41 223 2.6 5.2 0.00 0.71 0.51 85 1008.9
20260501233505 41 210 3.5 5.2 0.00 0.71 0.51 85 1008.8
20260501233023 41 207 2.6 6.1 0.00 0.72 0.51 84 1008.7
20260501232514 41 207 2.6 6.1 0.00 0.72 0.51 84 1008.7
20260501232002 41 199 1.7 6.1 0.00 0.72 0.51 84 1008.7
20260501231506 41 188 1.7 3.5 0.00 0.72 0.51 84 1008.6
20260501231003 42 202 1.7 3.5 0.00 0.72 0.51 84 1008.6
20260501230504 42 215 1.7 6.1 0.00 0.72 0.51 84 1008.5
20260501230010 42 223 2.6 6.1 0.00 0.72 0.51 83 1008.4
20260501225504 42 242 2.6 7.0 0.00 0.72 0.51 84 1008.3
20260501225006 42 243 3.5 7.0 0.00 0.72 0.51 83 1008.2
20260501224517 42 237 2.6 6.1 0.00 0.72 0.51 83 1008.2
20260501224004 42 230 2.6 8.7 0.00 0.72 0.51 83 1008.2
20260501223507 42 227 3.5 8.7 0.00 0.72 0.51 84 1008.3
20260501223021 42 239 2.6 6.1 0.00 0.72 0.51 85 1008.2
20260501222506 42 236 3.5 6.1 0.00 0.72 0.51 85 1008.2
20260501222011 42 228 2.6 7.0 0.00 0.72 0.51 85 1008.2
20260501221523 42 204 3.5 7.0 0.00 0.72 0.51 84 1008.0
20260501221003 42 254 3.5 6.1 0.00 0.72 0.51 85 1008.1
20260501220503 42 248 1.7 6.1 0.00 0.72 0.51 85 1008.0
20260501220007 42 240 2.6 6.1 0.00 0.72 0.51 85 1008.1
20260501215503 42 200 1.7 7.8 0.00 0.72 0.51 85 1008.2
20260501215004 42 221 4.3 8.7 0.00 0.72 0.51 84 1008.1
20260501214512 42 205 4.3 8.7 0.00 0.73 0.51 84 1008.1
20260501214004 42 178 0.9 8.7 0.00 0.73 0.51 85 1008.1
20260501213509 41 224 5.2 8.7 0.00 0.74 0.51 85 1008.1
20260501213018 42 236 3.5 8.7 0.00 0.74 0.51 86 1008.0
20260501212506 42 221 3.5 8.7 0.00 0.74 0.51 85 1008.0
20260501212005 42 244 4.3 7.8 0.00 0.74 0.51 85 1008.0
20260501211522 42 285 2.6 6.1 0.00 0.74 0.51 86 1008.0
20260501211008 42 249 2.6 8.7 0.00 0.74 0.51 87 1008.0
20260501210510 42 279 4.3 11.3 0.00 0.74 0.51 88 1008.0
20260501210032 41 276 5.2 12.2 0.00 0.74 0.51 87 1008.1
20260501205503 41 261 4.3 12.2 0.00 0.74 0.51 89 1008.0
20260501205003 41 246 5.2 12.2 0.00 0.74 0.51 89 1008.1
20260501204510 40 261 5.2 12.2 0.00 0.74 0.51 90 1008.0
20260501204007 40 252 5.2 10.4 0.00 0.74 0.51 90 1008.0
20260501203504 40 263 5.2 10.4 0.00 0.74 0.51 91 1008.0
20260501203017 40 242 4.3 10.4 0.00 0.74 0.51 91 1007.9
20260501202506 40 279 5.2 10.4 0.00 0.74 0.51 91 1007.9
20260501202009 40 277 4.3 8.7 0.00 0.74 0.51 92 1007.8
20260501201520 40 203 3.5 8.7 0.00 0.74 0.51 92 1007.7
20260501201006 40 267 4.3 13.9 0.00 0.74 0.51 92 1007.7
20260501200510 40 280 5.2 13.9 0.00 0.74 0.51 92 1007.7
20260501200023 40 234 8.7 13.9 0.00 0.74 0.51 92 1007.7
20260501195509 40 268 5.2 12.2 0.00 0.74 0.51 93 1007.6
20260501195012 39 251 6.1 12.2 0.00 0.74 0.51 92 1007.6
20260501194509 39 251 5.2 10.4 0.00 0.74 0.51 92 1007.5
20260501194003 39 217 6.1 10.4 0.00 0.74 0.51 92 1007.5
20260501193502 39 239 5.2 10.4 0.00 0.74 0.51 92 1007.3
20260501193011 40 245 4.3 8.7 0.00 0.74 0.51 92 1007.3
20260501192503 40 277 4.3 9.6 0.00 0.74 0.51 92 1007.3
20260501192006 40 274 5.2 10.4 0.00 0.74 0.51 92 1007.3
20260501191518 40 244 4.3 10.4 0.00 0.74 0.51 91 1007.3
20260501191006 40 267 5.2 11.3 0.00 0.74 0.51 91 1007.2
20260501190513 40 265 3.5 11.3 0.00 0.74 0.51 91 1007.1
20260501190025 41 278 2.6 8.7 0.00 0.74 0.51 92 1007.0
20260501185510 40 269 4.3 8.7 0.00 0.74 0.51 91 1006.8
20260501185010 41 299 2.6 7.8 0.00 0.74 0.51 92 1006.8